Regional Weather Roundup
Issued by NWS

Home | Current Version | Previous Version | Graphics & Text | Print | Product List | Glossary On
Versions: 1 2 3 4 5 6 7 8 9 10 11 12 13 14 15 16 17 18 19 20 21 22 23 24 25 26 27 28 29 30 31 32 33 34 35 36 37 38 39 40 41 42 43 44 45 46 47 48 49 50
000
ASUS43 KMKX 181621
RWRWI

WISCONSIN REGIONAL WEATHER ROUNDUP
NATIONAL WEATHER SERVICE MILWAUKEE/SULLIVAN WI
1100 AM CDT THU SEP 18 2014

NOTE: "FAIR" INDICATES FEW OR NO CLOUDS BELOW 12,000 FEET WITH NO
SIGNIFICANT WEATHER AND/OR OBSTRUCTIONS TO VISIBILITY.

WIZ001-002-006>008-014>016-023>028-181700-
NORTHWEST WISCONSIN

CITY           SKY/WX    TMP DP  RH WIND       PRES   REMARKS
SUPERIOR ARPT  CLOUDY    47  41  80 E6        30.17S
ASHLAND        CLOUDY    46  41  82 E3        30.19R
HAYWARD        CLOUDY    50  45  83 SE5       30.15S
SIREN          CLOUDY    52  49  88 SE6       30.13S
RICE LAKE      CLOUDY    51  47  87 SE8       30.16S
LADYSMITH      CLOUDY    50  47  89 SE8       30.18R
EAU CLAIRE     CLOUDY    51  48  89 S8        30.15S
MENOMONIE      CLOUDY    51  50  93 SE8       30.15R FOG
NEW RICHMOND   CLOUDY    53  52  96 SE7       30.13R
OSCEOLA        CLOUDY    54  54 100 SE7       30.15S
$$

WIZ003>005-009-010-017-018-181700-
NORTH CENTRAL WISCONSIN

CITY           SKY/WX    TMP DP  RH WIND       PRES   REMARKS
WOODRUFF       CLOUDY    44  40  84 SE7       30.19R
RHINELANDER    CLOUDY    42  38  85 SE7       30.20S
EAGLE RIVER    CLOUDY    43  35  73 S7        30.20R
LAND O LAKES   CLOUDY    44  37  75 S6        30.20S
PHILLIPS       CLOUDY    47  44  88 SE8       30.17R
TOMAHAWK       CLOUDY    44  41  89 SE6       30.20R
MEDFORD        CLOUDY    44  43  96 SE8       30.19R FOG
MERRILL        CLOUDY    45  41  86 S6        30.21R
$$

WIZ029-030-035-036-043>047-181700-
CENTRAL WISCONSIN

CITY           SKY/WX    TMP DP  RH WIND       PRES   REMARKS
WAUSAU         CLOUDY    44  40  85 E8        30.20R
MOSINEE        CLOUDY    45  43  93 SE6       30.22R
MARSHFIELD     CLOUDY    47  44  90 SE10      30.19S FOG
STEVENS POINT  CLOUDY    44  40  86 E6        30.22R
WAUPACA        CLOUDY    50  44  80 E5        30.23R
WAUTOMA        CLOUDY    49  44  83 E6        30.22S
WISC RAPIDS    CLOUDY    48  44  86 E6        30.22R
CAMP DOUGLAS   NOT AVBL
$$

WIZ011>013-019>022-031-037>040-048>050-181700-
NORTHEAST WISCONSIN

CITY           SKY/WX    TMP DP  RH WIND       PRES   REMARKS
ANTIGO         CLOUDY    43  38  85 SE3       30.21S
STURGEON BAY   CLOUDY    52  41  66 NE6       30.22S
GREEN BAY      CLOUDY    50  42  74 VRB3      30.22S
MANITOWOC      CLOUDY    52  45  77 N9        30.21S
APPLETON       CLOUDY    48  39  71 NE6       30.22S
CLINTONVILLE   CLOUDY    46  39  76 E6        30.23R
OSHKOSH        CLOUDY    51  45  79 VRB6      30.20F
$$

WIZ032>034-041-042-053>061-181700-
SOUTHWEST WISCONSIN

CITY           SKY/WX    TMP DP  RH WIND       PRES   REMARKS
LA CROSSE      CLOUDY    57  51  80 E6        30.16S
SPARTA         CLOUDY    54  50  87 E8        30.18S
VIROQUA        CLOUDY    52  52 100 SE6       30.17S
BOSCOBEL       CLOUDY    57  52  83 NE5       30.18S
PRAIRIE DU CHI SUNNY     59  51  76 SE6       30.15S
PLATTEVILLE    FAIR      58  53  81 E6        30.17S
$$

WIZ056-057-062-063-064-067-068-181700-
SOUTH CENTRAL WISCONSIN

CITY           SKY/WX    TMP DP  RH WIND       PRES   REMARKS
BARABOO/DELLS  CLOUDY    50  47  89 E6        30.20R FOG
LONE ROCK      CLOUDY    57  51  80 E8        30.19R
WATERTOWN      CLOUDY    52  51  94 CALM      30.19S
MADISON        CLOUDY    52  49  89 SE7       30.19S FOG
MIDDLETON      CLOUDY    53  53  99 E3        30.20R
MONROE         FOG       52  50  93 E6        30.18R VSB 1
JANESVILLE     CLOUDY    55  52  88 E6        30.18R
$$

WIZ051-052-058>065-066-070>072-181700-
SOUTHEAST WISCONSIN

CITY           SKY/WX    TMP DP  RH WIND       PRES   REMARKS
MILWAUKEE      CLOUDY    56  50  80 N13       30.19R
WAUKESHA       CLOUDY    54  48  82 N3        30.19S
MILWAUKEE/TIMM CLOUDY    54  48  82 NE7       30.19S
RACINE         CLOUDY    58  52  80 N15       30.19R
BURLINGTON     CLOUDY    56  51  82 NE6       30.18R
KENOSHA        CLOUDY    60  54  80 VRB5      30.18R
FOND DU LAC    CLOUDY    51  45  79 E3        30.21S
SHEBOYGAN      CLOUDY    53  45  74 VRB6      30.20S
WEST BEND      CLOUDY    52  45  76 N3        30.20R
JUNEAU         CLOUDY    50  47  88 E6        30.21S
$$

LSZ147-162-181700-
LAKE SUPERIOR

STATION/POSITION TIME  TEMP    WIND        PRES    WAVE
                       AIR SEA DIR/SP/G            HT/PER
                 (UTC) (F)     (DEG/KT/KT) (MB)    (FT/S)
W MID LAKE BUOY  1550   44 47  110/ 10/ 12 1023.4R   1/ 3
DEVILS ISLAND    1600   44     100/ 10/ 12 1023.2R
PORT WING        1500   49      80/  6/ 10 1022.0R
SAXON HARBOR     1500   45      60/  4/  5 1022.0S
$$

LMZ867-665-643>646-181700-
LAKE MICHIGAN

STATION/POSITION TIME  TEMP    WIND        PRES    WAVE
                       AIR SEA DIR/SP/G            HT/PER
                 (UTC) (F)     (DEG/KT/KT) (MB)    (FT/S)
N MID LAKE BUOY  1550   50 58   90/ 10/ 12 1023.1R   2/ 4
NORTHPORT PIER   1500   50      10/  8/ 12 1023.0R
KEWAUNEE LAKESHO 1600   52      20/  6/  9 1022.1R
SHEBOYGAN LAKESH 1600   49 48  350/ 10/ 11 1023.2R
PORT WASHINGTON  1500   54      20/  5/  8 1022.7
ATWATER BUOY     1600   54     360/ 16/ 19 1022.8R
MILWAUKEE LAKESH 1600   54      10/ 12/ 15   N/A
S MID LAKE BUOY  1550   62 63  190/  4/  6 1021.0S   3/ 6
KENOSHA   LAKESH 1600   57      20/  9/ 10 1021.7R
$$

TC  - TEMPERATURE IN CELSIUS
VSB - VISIBILITY IN STATUTE MILES
WCI - WIND CHILL INDEX
HX  - HEAT INDEX




USA.gov is the U.S. government's official web portal to all federal, state and local government web resources and services.